Regional Weather Roundup
Issued by NWS

Home | Current Version | Previous Version | Graphics & Text | Print | Product List | Glossary On
Versions: 1 2 3 4 5 6 7 8 9 10 11 12 13 14 15 16 17 18 19 20 21 22 23 24 25 26 27 28 29 30 31 32 33 34 35 36 37 38 39 40 41 42 43 44 45 46 47 48 49 50
000
ASUS43 KDMX 080408
RWRIA

WEATHER ROUNDUP FOR IOWA
NATIONAL WEATHER SERVICE DES MOINES IA
1000 PM CST SUN FEB 07 2016

NOTE: "FAIR" INDICATES FEW OR NO CLOUDS BELOW 12,000 FEET WITH NO
SIGNIFICANT WEATHER AND/OR OBSTRUCTIONS TO VISIBILITY.

* - THESE STATIONS ARE NOT NWS STATIONS...THUS NOT UNDER NWS
QUALITY CONTROL.  THEY ALSO DO NOT REPORT WEATHER SUCH
AS PRECIPITATION OR FOG.

IAZ001>003-012>014-020>022-031>034-043>046-080500-
   NORTHWEST IOWA

CITY           SKY/WX    TMP DP  RH WIND       PRES   REMARKS
CARROLL *      CLOUDY    28  21  74 NW29G36   29.89R WCI  13
CHEROKEE *     LGT SNOW  25  21  86 NW14G24   29.94R WCI  13
DENISON *      FLURRIES  27  21  80 NW28G38   29.93R WCI  11
LE MARS *      FLURRIES  27  25  93 NW18      29.98R WCI  13
ORANGE CITY *  LGT SNOW  25  23  93 NW20G28   29.94R WCI  11
SHELDON *      LGT SNOW  23  21  93 NW22G33   29.92R WCI   8
SIOUX CITY     LGT SNOW  30  24  78 NW31G44   29.96R WCI  15
SPENCER        LGT SNOW  23  16  74 NW28G40   29.88S WCI   6
STORM LAKE *   LGT SNOW  25  19  80 NW40G49   29.89R WCI   6
$$

IAZ055>058-069>071-079>083-090>094-080500-
   SOUTHWEST IOWA

CITY           SKY/WX    TMP DP  RH WIND       PRES   REMARKS
ATLANTIC *     CLOUDY    30  23  74 NW26G40   29.94S WCI  16
AUDUBON *      CLOUDY    28  19  69 NW24G38   29.92S WCI  14
CLARINDA *     MIX PCPN  34  28  80 NW15G25   29.99S WCI  24
COUNCIL BLFS * LGT SNOW  32  30  93 NW20G28   29.97R WCI  20
CRESTON *      CLOUDY    32  23  69 NW29G36   29.91S WCI  18
HARLAN  *      LGT SNOW  30  27  86 NW21      29.98S WCI  17
LAMONI         CLOUDY    33  23  66 NW37G44   29.89S WCI  18
RED OAK *      LGT SNOW  32  28  86 NW16G24   29.98R WCI  21
SHENANDOAH *   FLURRIES  34  32  93 NW13G20   30.00S WCI  25
$$

IAZ047>049-059>061-072>074-084-080500-
   CENTRAL IOWA

CITY           SKY/WX    TMP DP  RH WIND       PRES   REMARKS
AMES           CLOUDY    32  25  75 NW21G31   29.83R WCI  20
ANKENY *       CLOUDY    32  30  93 NW16G24   29.84S WCI  21
BOONE *        FLURRIES  30  25  80 NW23G36   29.82S WCI  17
CHARITON *     CLOUDY    34  28  80 NW17G35   29.85S WCI  23
DES MOINES     FLURRIES  33  27  78 NW25G36   29.85F WCI  20
GRINNELL*      CLOUDY    34  30  86 NW18      29.80S WCI  23
KNOXVILLE *    CLOUDY    34  28  80 NW15G25   29.82S WCI  24
MARSHALLTOWN   CLOUDY    32  28  85 NW23      29.78S WCI  19
NEWTON *       LGT RAIN  34  32  93 NW10G24   29.81R WCI  26
PELLA *        CLOUDY    34  30  86 NW17G25   29.84R WCI  23
$$

IAZ004>006-015-016-023>025-035-036-080500-
   NORTH CENTRAL IOWA

CITY           SKY/WX    TMP DP  RH WIND       PRES   REMARKS
ALGONA *       MIX PCPN  25  21  86 NW26G36   29.83R WCI   9
CLARION *      LGT SNOW  27  21  80 NW32G38   29.81R WCI  10
ESTHERVILLE    LGT SNOW  22  19  89 N20G29    29.85S FOG     WCI   7
FORT DODGE *   MOCLDY    27  19  74 NW15G22   29.85S WCI  15
MASON CITY     MIX PCPN  26  22  84 NW28G38   29.79R FOG     WCI  10
FOREST CITY *  LGT SNOW  25  21  86 NW31G41   29.80R VSB 3/4 WCI   8
WEBSTER CITY * LGT SNOW  27  27 100 N29       29.81S VSB 3/4 WCI  11
IOWA FALLS *   LGT SNOW  30  25  80 NW29G39   29.80R WCI  15
$$

IAZ007>011-017>019-026>030-037>042-050>054-066-080500-
   NORTHEAST IOWA

CITY           SKY/WX    TMP DP  RH WIND       PRES   REMARKS
CEDAR RAPIDS   FLURRIES  33  33 100 W14       29.74F WCI  23
CHARLES CITY * CLOUDY    28  25  86 NW24G33   29.75R FOG     WCI  14
CLINTON *      CLEAR     32  28  85 W12       29.74F WCI  23
DECORAH *      LGT SNOW  28  25  86 NW21G26   29.68R WCI  15
DUBUQUE        CLOUDY    33  29  85 W14       29.69F WCI  23
MONTICELLO *   CLOUDY    34  32  93 W15       29.71F WCI  24
OELWEIN *      MIX PCPN  32  28  86 NW28G33   29.72R WCI  18
WATERLOO       LGT SNOW  32  28  85 NW22      29.75R FOG     WCI  19
$$

IAZ064-065-067-068-078-080500-
   EAST CENTRAL IOWA

CITY           SKY/WX    TMP DP  RH WIND       PRES   REMARKS
DAVENPORT      MOCLDY    33  28  81 W13       29.75F WCI  24
IOWA CITY      CLOUDY    33  32  96 W13       29.78F WCI  24
MT. PLEASANT * CLOUDY    36  32  87 W10       29.80F WCI  28
MUSCATINE *    CLOUDY    36  30  80 W14       29.78F WCI  27
QUAD CITIES    CLEAR     34  27  75 W10       29.75F WCI  26
$$

IAZ062-063-075>077-085>089-095>099-080500-
   SOUTHEAST IOWA

CITY           SKY/WX    TMP DP  RH WIND       PRES   REMARKS
BURLINGTON     PTCLDY    34  29  82 W9        29.80F WCI  27
FAIRFIELD *    CLOUDY    34  30  86 W13G18    29.80F WCI  25
FORT MADISON * MOCLDY    34  30  86 W14       29.82F WCI  24
KEOKUK *       MOCLDY    36  28  75 W8        29.83S WCI  29
OSKALOOSA *    CLOUDY    34  30  86 W14G21    29.81F WCI  24
CENTERVILLE *    N/A    N/A N/A N/A MISG        N/A
OTTUMWA        CLOUDY    34  31  88 W13       29.81F WCI  25
WASHINGTON *   CLOUDY    34  32  93 W14G22    29.80F WCI  24
$$

ABBREVIATIONS USED IN REMARKS
   TC - TEMPERATURES IN CELSIUS
  WCI - WIND CHILL INDEX
   HX - HEAT INDEX
  VSB - VISIBILITY
$$




USA.gov is the U.S. government's official web portal to all federal, state and local government web resources and services.